Location: Barruelo
(41.2448°N, 3.8231°W)
Time: 04:24:52
(UTC+00:00)

Spot 4 Rocket - Pass Details

Date: 11 December 2025
Orbit: 769 x 773 km, 98.8° (Epoch: 13 January)

Event Time Altitude Azimuth Distance (km) Brightness Sun altitude
Rises 18:15:30 0° 150° (SSE) 3,229 7.1 -16.2°
Reaches altitude 10° 18:17:51 10° 145° (SE) 2,308 6.3 -16.6°
Maximum altitude 18:22:45 50° 71° (ENE) 976 4.1 -17.5°
Drops below altitude 10° 18:27:41 10° 357° (N) 2,326 6.4 -18.4°
Sets 18:30:03 0° 352° (N) 3,257 7.2 -18.8°
